Weather History for Charles City, IA

Change the Weather History Date:

Monday, December 23, 2013

  Actual Average Record
Temperature  
Mean Temperature -4 °F -  
Max Temperature 0 °F 25 °F 46 °F (1965)
Min Temperature -9 °F 10 °F -23 °F (1990)
Degree Days  
Heating Degree Days 70    
Moisture  
Dew Point -13 °F    
Average Humidity 67    
Maximum Humidity 72    
Minimum Humidity 60    
Precipitation  
Precipitation 0.00 in - - ()
Sea Level Pressure  
Sea Level Pressure 30.38 in    
Wind  
Wind Speed 14 mph (WNW)    
Max Wind Speed 20 mph    
Max Gust Speed 24 mph    
Visibility 10 miles    
Events      
Averages and records for this station are not official NWS values.
T = Trace of Precipitation, MM = Missing Value Source: NWS Daily Summary

Daily Weather History Graph

Daily Weather History Graph

Search for Another Location

Airport:

Trip Planner

Search our weather history database for the weather conditions in past years. The results will help you decide how hot, cold, wet, or windy it might be!

Date:

Astronomy

Dec. 23, 2013 Rise Set
Actual Time 7:39 AM CST 4:39 PM CST
Civil Twilight 7:07 AM CST 5:12 PM CST
Nautical Twilight 6:31 AM CST 5:48 PM CST
Astronomical Twilight 5:56 AM CST 6:22 PM CST
Moon 10:59 PM CST (12/23) 10:56 AM CST (12/23)
Length of Visible Light 10h 04m
Length of Day
8h 59m
Waning Gibbous, 68% of the Moon is Illuminated
Dec 23
Waning Gibbous
Dec 25
Last Quarter
Jan 1
New
Jan 7
First Quarter
Jan 15
Full

Hourly Weather History & Observations

Time (CST) Temp. Windchill Dew Point Humidity Pressure Visibility Wind Dir Wind Speed Gust Speed Precip Events Conditions
12:15 AM -0.4 °F -20.5 °F -7.6 °F 72% 30.24 in 10.0 mi WNW 16.1 mph - N/A   Overcast
12:35 AM -0.4 °F -19.9 °F -7.6 °F 72% 30.24 in 10.0 mi WNW 15.0 mph - N/A   Overcast
12:55 AM -0.4 °F -22.3 °F -7.6 °F 72% 30.25 in 10.0 mi WNW 19.6 mph - N/A   Overcast
1:15 AM -0.4 °F -20.5 °F -7.6 °F 72% 30.25 in 10.0 mi NW 16.1 mph - N/A   Overcast
1:35 AM -2.2 °F -19.9 °F -9.4 °F 71% 30.26 in 10.0 mi WNW 11.5 mph - N/A   Overcast
1:55 AM -2.2 °F -19.9 °F -9.4 °F 71% 30.26 in 10.0 mi WNW 11.5 mph - N/A   Overcast
2:15 AM -2.2 °F -22.2 °F -9.4 °F 71% 30.26 in 10.0 mi WNW 15.0 mph - N/A   Overcast
2:35 AM -2.2 °F -22.2 °F -9.4 °F 71% 30.27 in 10.0 mi WNW 15.0 mph - N/A   Overcast
2:55 AM -2.2 °F -22.2 °F -9.4 °F 71% 30.27 in 10.0 mi WNW 15.0 mph - N/A   Overcast
3:15 AM -2.2 °F -24.7 °F -9.4 °F 71% 30.28 in 10.0 mi WNW 19.6 mph - N/A   Mostly Cloudy
3:35 AM -4.0 °F -24.5 °F -11.2 °F 71% 30.29 in 10.0 mi WNW 15.0 mph 21.9 mph N/A   Overcast
3:55 AM -4.0 °F -23.0 °F -11.2 °F 71% 30.29 in 10.0 mi WNW 12.7 mph 18.4 mph N/A   Overcast
4:15 AM -4.0 °F -24.5 °F -11.2 °F 71% 30.30 in 10.0 mi WNW 15.0 mph - N/A   Overcast
4:35 AM -4.0 °F -22.1 °F -13.0 °F 65% 30.30 in 10.0 mi WNW 11.5 mph - N/A   Overcast
4:55 AM -4.0 °F -23.7 °F -13.0 °F 65% 30.30 in 10.0 mi WNW 13.8 mph 20.7 mph N/A   Mostly Cloudy
5:15 AM -5.8 °F -27.5 °F -13.0 °F 71% 30.30 in 10.0 mi NW 16.1 mph - N/A   Mostly Cloudy
5:35 AM -5.8 °F -25.2 °F -13.0 °F 71% 30.31 in 10.0 mi WNW 12.7 mph 21.9 mph N/A   Scattered Clouds
5:55 AM -5.8 °F -24.4 °F -14.8 °F 65% 30.32 in 10.0 mi WNW 11.5 mph - N/A   Mostly Cloudy
6:15 AM -5.8 °F -28.2 °F -14.8 °F 65% 30.33 in 10.0 mi WNW 17.3 mph - N/A   Mostly Cloudy
6:35 AM -5.8 °F -27.5 °F -14.8 °F 65% 30.33 in 10.0 mi WNW 16.1 mph - N/A   Overcast
6:55 AM -5.8 °F -27.5 °F -14.8 °F 65% 30.34 in 10.0 mi WNW 16.1 mph - N/A   Overcast
7:15 AM -7.6 °F -27.5 °F -14.8 °F 71% 30.34 in 10.0 mi WNW 12.7 mph 20.7 mph N/A   Mostly Cloudy
7:35 AM -7.6 °F -29.1 °F -14.8 °F 71% 30.35 in 10.0 mi WNW 15.0 mph 21.9 mph N/A   Overcast
7:55 AM -7.6 °F -29.1 °F -16.6 °F 65% 30.36 in 10.0 mi WNW 15.0 mph - N/A   Mostly Cloudy
8:15 AM -7.6 °F -30.5 °F -16.6 °F 65% 30.37 in 10.0 mi WNW 17.3 mph - N/A   Mostly Cloudy
8:35 AM -7.6 °F -29.1 °F -16.6 °F 65% 30.38 in 10.0 mi WNW 15.0 mph - N/A   Scattered Clouds
8:55 AM -5.8 °F -25.2 °F -16.6 °F 60% 30.39 in 10.0 mi WNW 12.7 mph 20.7 mph N/A   Partly Cloudy
9:15 AM -5.8 °F -27.5 °F -14.8 °F 65% 30.38 in 10.0 mi WNW 16.1 mph - N/A   Scattered Clouds
9:35 AM -5.8 °F -28.8 °F -14.8 °F 65% 30.39 in 10.0 mi WNW 18.4 mph 24.2 mph N/A   Scattered Clouds
9:55 AM -5.8 °F -29.4 °F -14.8 °F 65% 30.39 in 10.0 mi WNW 19.6 mph - N/A   Mostly Cloudy
10:15 AM -5.8 °F -27.5 °F -14.8 °F 65% 30.40 in 10.0 mi WNW 16.1 mph - N/A   Overcast
10:35 AM -5.8 °F -26.8 °F -14.8 °F 65% 30.40 in 10.0 mi WNW 15.0 mph - N/A   Overcast
10:55 AM -4.0 °F -26.4 °F -14.8 °F 60% 30.41 in 10.0 mi WNW 18.4 mph - N/A   Overcast
11:15 AM -4.0 °F -25.2 °F -14.8 °F 60% 30.40 in 10.0 mi WNW 16.1 mph - N/A   Mostly Cloudy
11:35 AM -4.0 °F -25.2 °F -13.0 °F 65% 30.40 in 10.0 mi WNW 16.1 mph - N/A   Mostly Cloudy
11:55 AM -4.0 °F -25.2 °F -13.0 °F 65% 30.40 in 10.0 mi WNW 16.1 mph - N/A   Overcast
12:15 PM -4.0 °F -25.2 °F -13.0 °F 65% 30.40 in 10.0 mi WNW 16.1 mph - N/A   Overcast
12:35 PM -2.2 °F -20.7 °F -13.0 °F 60% 30.40 in 10.0 mi WNW 12.7 mph 19.6 mph N/A   Overcast
12:55 PM -2.2 °F -21.5 °F -13.0 °F 60% 30.41 in 10.0 mi WNW 13.8 mph - N/A   Mostly Cloudy
1:15 PM -2.2 °F -21.5 °F -11.2 °F 66% 30.41 in 9.0 mi WNW 13.8 mph - N/A   Mostly Cloudy
1:35 PM -2.2 °F -20.7 °F -11.2 °F 66% 30.41 in 8.0 mi WNW 12.7 mph 19.6 mph N/A   Mostly Cloudy
1:55 PM -2.2 °F -21.5 °F -11.2 °F 66% 30.40 in 8.0 mi WNW 13.8 mph - N/A   Mostly Cloudy
2:15 PM -0.4 °F -17.6 °F -9.4 °F 66% 30.40 in 9.0 mi WNW 11.5 mph - N/A   Mostly Cloudy
2:35 PM -0.4 °F -18.4 °F -9.4 °F 66% 30.40 in 9.0 mi WNW 12.7 mph 19.6 mph N/A   Mostly Cloudy
2:55 PM -0.4 °F -17.6 °F -9.4 °F 66% 30.41 in 10.0 mi WNW 11.5 mph 18.4 mph N/A   Mostly Cloudy
3:15 PM -0.4 °F -18.4 °F -9.4 °F 66% 30.41 in 10.0 mi WNW 12.7 mph - N/A   Overcast
3:35 PM -0.4 °F -19.2 °F -9.4 °F 66% 30.41 in 10.0 mi WNW 13.8 mph - N/A   Mostly Cloudy
3:55 PM -0.4 °F -19.9 °F -9.4 °F 66% 30.42 in 10.0 mi WNW 15.0 mph - N/A   Overcast
4:15 PM -0.4 °F -19.2 °F -9.4 °F 66% 30.43 in 10.0 mi WNW 13.8 mph - N/A   Overcast
4:35 PM -0.4 °F -19.9 °F -9.4 °F 66% 30.42 in 10.0 mi WNW 15.0 mph - N/A   Overcast
4:55 PM -0.4 °F -19.2 °F -9.4 °F 66% 30.42 in 10.0 mi WNW 13.8 mph - N/A   Mostly Cloudy
5:15 PM -0.4 °F -18.4 °F -9.4 °F 66% 30.43 in 10.0 mi NW 12.7 mph 18.4 mph N/A   Overcast
5:35 PM -2.2 °F -20.7 °F -9.4 °F 71% 30.44 in 10.0 mi NW 12.7 mph - N/A   Overcast
5:55 PM -2.2 °F -22.2 °F -11.2 °F 66% 30.44 in 10.0 mi NW 15.0 mph - N/A   Overcast
6:15 PM -2.2 °F -19.9 °F -11.2 °F 66% 30.44 in 10.0 mi NW 11.5 mph 17.3 mph N/A   Overcast
6:35 PM -4.0 °F -23.7 °F -13.0 °F 65% 30.46 in 10.0 mi NW 13.8 mph - N/A   Scattered Clouds
6:55 PM -4.0 °F -23.0 °F -13.0 °F 65% 30.46 in 10.0 mi NW 12.7 mph 18.4 mph N/A   Mostly Cloudy
7:15 PM -4.0 °F -21.2 °F -13.0 °F 65% 30.47 in 10.0 mi NW 10.4 mph - N/A   Overcast
7:35 PM -5.8 °F -22.4 °F -13.0 °F 71% 30.48 in 10.0 mi NW 9.2 mph - N/A   Overcast
7:55 PM -5.8 °F -24.4 °F -13.0 °F 71% 30.47 in 10.0 mi NW 11.5 mph - N/A   Mostly Cloudy
8:15 PM -5.8 °F -22.4 °F -14.8 °F 65% 30.48 in 10.0 mi NW 9.2 mph - N/A   Overcast
8:35 PM -5.8 °F -19.9 °F -14.8 °F 65% 30.48 in 10.0 mi NW 6.9 mph - N/A   Overcast
8:55 PM -5.8 °F -21.2 °F -14.8 °F 65% 30.47 in 10.0 mi NW 8.1 mph - N/A   Overcast
9:15 PM -7.6 °F -23.4 °F -14.8 °F 71% 30.47 in 10.0 mi NW 8.1 mph - N/A   Overcast
9:35 PM -7.6 °F -22.1 °F -14.8 °F 71% 30.47 in 10.0 mi NW 6.9 mph - N/A   Overcast
9:55 PM -7.6 °F -22.1 °F -14.8 °F 71% 30.47 in 10.0 mi NW 6.9 mph - N/A   Mostly Cloudy
10:15 PM -7.6 °F -22.1 °F -16.6 °F 65% 30.47 in 10.0 mi NW 6.9 mph - N/A   Partly Cloudy
10:35 PM -7.6 °F -20.6 °F -16.6 °F 65% 30.48 in 10.0 mi WNW 5.8 mph - N/A   Clear
10:55 PM -9.4 °F -22.7 °F -16.6 °F 71% 30.48 in 10.0 mi WNW 5.8 mph - N/A   Clear
11:15 PM -9.4 °F -22.7 °F -16.6 °F 71% 30.47 in 10.0 mi NW 5.8 mph - N/A   Clear
11:35 PM -9.4 °F -24.3 °F -16.6 °F 71% 30.48 in 10.0 mi WNW 6.9 mph - N/A   Clear
11:55 PM -9.4 °F -20.9 °F -18.4 °F 65% 30.47 in 10.0 mi West 4.6 mph - N/A   Clear